Weather History for Mombasa, Kenya

Change the Weather History Date:

Sunday, November 11, 2012

  Actual Average Record
Temperature  
Mean Temperature 80 °F -  
Max Temperature 86 °F 90 °F - ()
Min Temperature 75 °F 72 °F - ()
Cooling Degree Days 16    
Growing Degree Days 30 (Base 50)    
Moisture  
Dew Point 73 °F    
Average Humidity 76    
Maximum Humidity 94    
Minimum Humidity 57    
Precipitation  
Precipitation 0.00 in 0.12 in - ()
Sea Level Pressure  
Sea Level Pressure 29.92 in    
Wind  
Wind Speed 5 mph ()    
Max Wind Speed 9 mph    
Max Gust Speed -    
Visibility 8.2 miles    
Events      
T = Trace of Precipitation, MM = Missing Value Source: Averaged Metar Reports

Daily Weather History Graph

Daily Weather History Graph

Search for Another Location

Airport:

Trip Planner

Search our weather history database for the weather conditions in past years. The results will help you decide how hot, cold, wet, or windy it might be!

Date:

Astronomy

Nov. 11, 2012 Rise Set
Actual Time 5:56 AM EAT 6:14 PM EAT
Civil Twilight 5:35 AM EAT 6:36 PM EAT
Nautical Twilight 5:09 AM EAT 7:01 PM EAT
Astronomical Twilight 4:44 AM EAT 7:26 PM EAT
Moon 3:24 AM EAT (11/11) 3:54 PM EAT (11/11)
Length of Visible Light 13h 00m
Length of Day
12h 17m
Waning Crescent, 9% of the Moon is Illuminated
Nov 11
Waning Crescent
Nov 14
New
Nov 20
First Quarter
Nov 28
Full
Dec 6
Last Quarter

Hourly Weather History & Observations

Time (EAT) Temp. Heat Index Dew Point Humidity Pressure Visibility Wind Dir Wind Speed Gust Speed Precip Events Conditions
12:00 AM 78.8 °F - 73.4 °F 83% 29.95 in 6.2 mi SE 4.6 mph - N/A   Partly Cloudy
12:30 AM 78.8 °F - 73.4 °F 83% 29.92 in 6.2 mi SE 5.8 mph - N/A   Partly Cloudy
2:00 AM 78.8 °F - 75.2 °F 89% 29.89 in 6.2 mi SW 3.5 mph - N/A   Mostly Cloudy
3:00 AM 77 °F - 73 °F 85% 29.91 in 19 mi SW 3.5 mph - -   Partly Cloudy
4:00 AM 77.0 °F - 75.2 °F 94% 29.92 in 6.2 mi Calm Calm - N/A   Partly Cloudy
5:30 AM 75.2 °F - 73.4 °F 94% 29.92 in 6.2 mi WSW 3.5 mph - N/A   Partly Cloudy
7:00 AM 77.0 °F - 75.2 °F 94% 29.95 in 6.2 mi SW 3.5 mph - N/A   Partly Cloudy
8:00 AM 78.8 °F - 75.2 °F 89% 29.98 in 6.2 mi West 4.6 mph - N/A   Partly Cloudy
9:00 AM 83 °F - 74 °F 67% 30.00 in 19 mi NE 3.5 mph - -   Mostly Cloudy
9:30 AM 84.2 °F 89.6 °F 71.6 °F 66% 30.01 in 6.2 mi SE 3.5 mph - N/A   Scattered Clouds
11:00 AM 84.2 °F 89.6 °F 71.6 °F 66% 29.98 in 6.2 mi SE 6.9 mph - N/A   Scattered Clouds
12:00 PM 84.2 °F 89.6 °F 71.6 °F 66% 29.95 in 6.2 mi SE 8.1 mph - N/A   Scattered Clouds
1:00 PM 86.0 °F 91.8 °F 71.6 °F 62% 29.92 in 6.2 mi SE 9.2 mph - N/A   Scattered Clouds
2:00 PM 86.0 °F 90.4 °F 69.8 °F 58% 29.89 in 6.2 mi SSE 9.2 mph - N/A   Partly Cloudy
3:00 PM 85 °F - 72 °F 57% 29.88 in 19 mi SSE 8.1 mph - -   Scattered Clouds
3:00 PM 84.2 °F 89.6 °F 71.6 °F 66% 29.89 in 6.2 mi SSE 8.1 mph - N/A   Partly Cloudy
4:00 PM 84.2 °F 90.9 °F 73.4 °F 70% 29.86 in 6.2 mi ESE 5.8 mph - N/A   Partly Cloudy
5:00 PM 84.2 °F 89.6 °F 71.6 °F 66% 29.86 in 6.2 mi East 8.1 mph - N/A   Partly Cloudy
6:00 PM 82.4 °F 87.2 °F 71.6 °F 70% 29.86 in 6.2 mi ESE 9.2 mph - N/A   Partly Cloudy
6:30 PM 80.6 °F 85.4 °F 73.4 °F 79% 29.89 in 6.2 mi SE 4.6 mph - N/A   Partly Cloudy
8:00 PM 80.6 °F 85.4 °F 73.4 °F 79% 29.92 in 6.2 mi ESE 4.6 mph - N/A   Partly Cloudy
9:00 PM 80 °F - 73 °F 74% 29.93 in 19 mi SE 6.9 mph - -   Scattered Clouds
9:00 PM 80.6 °F 85.4 °F 73.4 °F 79% 29.92 in 6.2 mi SE 6.9 mph - N/A   Partly Cloudy
9:30 PM 80.6 °F 85.4 °F 73.4 °F 79% 29.95 in 6.2 mi ESE 4.6 mph - N/A   Partly Cloudy
11:00 PM 78.8 °F - 73.4 °F 83% 29.92 in 6.2 mi ESE 3.5 mph - N/A   Partly Cloudy